Weather History for Triuchirapalli, India

Change the Weather History Date:

Tuesday, October 25, 2011

  Actual Average Record
Temperature  
Mean Temperature 78 °F -  
Max Temperature 83 °F 84 °F 96 °F (2010)
Min Temperature 73 °F 74 °F 72 °F (2012)
Cooling Degree Days 14    
Growing Degree Days 28 (Base 50)    
Moisture  
Dew Point 75 °F    
Average Humidity 90    
Maximum Humidity 100    
Minimum Humidity 79    
Precipitation  
Precipitation 0.00 in - - ()
Sea Level Pressure  
Sea Level Pressure 29.79 in    
Wind  
Wind Speed 4 mph ()    
Max Wind Speed 10 mph    
Max Gust Speed -    
Visibility 3.1 miles    
Events Rain    
Averages and records for this station are not official NWS values.
T = Trace of Precipitation, MM = Missing Value Source: Averaged Metar Reports

Daily Weather History Graph

Daily Weather History Graph

Search for Another Location

Airport:

Trip Planner

Search our weather history database for the weather conditions in past years. The results will help you decide how hot, cold, wet, or windy it might be!

Date:

Astronomy

Oct. 25, 2011 Rise Set
Actual Time 6:05 AM IST 5:53 PM IST
Civil Twilight 5:43 AM IST 6:14 PM IST
Nautical Twilight 5:18 AM IST 6:39 PM IST
Astronomical Twilight 4:53 AM IST 7:04 PM IST
Moon 4:16 AM IST (10/25) 4:30 PM IST (10/25)
Length of Visible Light 12h 31m
Length of Day
11h 48m
Waning Crescent, 4% of the Moon is Illuminated
Oct 25
Waning Crescent
Oct 27
New
Nov 2
First Quarter
Nov 11
Full
Nov 18
Last Quarter

Hourly Weather History & Observations

Time (IST) Temp. Heat Index Dew Point Humidity Pressure Visibility Wind Dir Wind Speed Gust Speed Precip Events Conditions
1:10 AM 77.0 °F - 75.2 °F 94% 29.80 in 3.1 mi NNE 2.3 mph - N/A   Haze
1:40 AM 77.0 °F - 75.2 °F 94% 29.80 in - NNE 2.3 mph - N/A   Haze
2:10 AM 77.0 °F - 75.2 °F 94% 29.77 in 3.1 mi NE 6.9 mph - N/A   Haze
2:30 AM 77 °F - 75 °F 92% 29.77 in 1 mi NE 4.6 mph - -   Partly Cloudy
2:40 AM - - - N/A% 29.77 in 3.1 mi NE 4.6 mph - N/A   Haze
3:10 AM 77.0 °F - 75.2 °F 94% 29.77 in 3.1 mi ENE 5.8 mph - N/A   Haze
3:40 AM 77.0 °F - 75.2 °F 94% 29.77 in 3.1 mi NNE 3.5 mph - N/A   Haze
5:10 AM 77.0 °F - 75.2 °F 94% 29.77 in 3.1 mi Calm Calm - N/A   Haze
5:30 AM 77 °F - 75 °F 92% 29.77 in 1 mi Calm Calm - -   Haze
7:10 AM 78.8 °F - 75.2 °F 89% 29.83 in 1.9 mi Calm Calm - N/A   Haze
7:40 AM 78.8 °F - 75.2 °F 89% 29.83 in 1.9 mi WSW 2.3 mph - N/A   Haze
8:10 AM 78.8 °F - 75.2 °F 89% 29.83 in 3.1 mi Variable 2.3 mph - N/A   Haze
8:30 AM 79 °F - 77 °F 90% 29.85 in 2 mi 2.3 mph - -   Haze
8:40 AM 78.8 °F - 77.0 °F 94% 29.86 in 3.1 mi Variable 2.3 mph - N/A   Haze
9:10 AM 78.8 °F - 77.0 °F 94% 29.86 in 3.7 mi Variable 2.3 mph - N/A   Partly Cloudy
9:40 AM 80.6 °F 86.2 °F 75.2 °F 84% 29.86 in 3.7 mi NNE 6.9 mph - N/A   Partly Cloudy
10:40 AM 80.6 °F 86.2 °F 75.2 °F 84% 29.83 in 3.7 mi NNE 6.9 mph - N/A   Mostly Cloudy
11:10 AM 82.4 °F 89.5 °F 75.2 °F 79% 29.83 in 3.7 mi NNE 5.8 mph - N/A   Partly Cloudy
11:30 AM 83 °F - 77 °F 79% 29.81 in 2 mi NE 5.8 mph - -   Haze
11:40 AM 84.2 °F 94.1 °F 77.0 °F 79% 29.80 in 3.7 mi NE 5.8 mph - N/A   Partly Cloudy
12:10 PM 84.2 °F 94.1 °F 77.0 °F 79% 29.80 in 3.7 mi ENE 5.8 mph - N/A   Partly Cloudy
12:40 PM 84.2 °F 94.1 °F 77.0 °F 79% 29.77 in 3.7 mi ENE 6.9 mph - N/A   Light Drizzle
1:10 PM 82.4 °F 92.4 °F 78.8 °F 89% 29.77 in 3.7 mi ENE 6.9 mph - N/A   Light Drizzle
1:40 PM 82.4 °F 92.4 °F 78.8 °F 89% 29.77 in 3.7 mi ENE 8.1 mph - N/A   Light Drizzle
2:10 PM 82.4 °F 92.4 °F 78.8 °F 89% 29.74 in 3.7 mi NE 9.2 mph - N/A   Partly Cloudy
2:30 PM 80 °F - 76 °F 84% 29.74 in 2 mi ENE 10.4 mph - - Rain Light Drizzle
3:10 PM 78.8 °F - 75.2 °F 89% 29.74 in 3.7 mi NE 10.4 mph - N/A   Light Drizzle
4:10 PM 80.6 °F 86.2 °F 75.2 °F 84% 29.74 in 3.7 mi ENE 9.2 mph - N/A   Overcast
5:30 PM 78 °F - 74 °F 84% 29.74 in 2 mi ENE 5.8 mph - -   Haze
5:40 PM 78.8 °F - 73.4 °F 83% 29.74 in 3.7 mi ENE 5.8 mph - N/A   Mostly Cloudy
6:10 PM 78.8 °F - 73.4 °F 83% 29.74 in 3.7 mi NE 9.2 mph - N/A   Mostly Cloudy
6:40 PM 77.0 °F - 73.4 °F 89% 29.77 in 3.7 mi ENE 8.1 mph - N/A   Mostly Cloudy
7:10 PM 77.0 °F - 73.4 °F 89% 29.77 in 3.7 mi ENE 4.6 mph - N/A   Overcast
7:40 PM 77.0 °F - 73.4 °F 89% 29.77 in 3.7 mi NE 4.6 mph - N/A   Mostly Cloudy
8:10 PM 77.0 °F - 73.4 °F 89% 29.77 in 3.7 mi NE 6.9 mph - N/A   Mostly Cloudy
8:30 PM 76 °F - 75 °F 95% 29.81 in 2 mi NE 5.8 mph - -   Haze
8:40 PM 75.2 °F - 75.2 °F 100% 29.80 in 3.7 mi NE 5.8 mph - N/A   Mostly Cloudy
9:10 PM 75.2 °F - 75.2 °F 100% 29.83 in 3.7 mi ENE 4.6 mph - N/A   Mostly Cloudy
9:40 PM 75.2 °F - 75.2 °F 100% 29.83 in 3.7 mi NE 5.8 mph - N/A   Mostly Cloudy
10:10 PM 75.2 °F - 75.2 °F 100% 29.83 in 3.7 mi ENE 5.8 mph - N/A   Mostly Cloudy
10:40 PM 75.2 °F - 75.2 °F 100% 29.83 in 3.7 mi NE 6.9 mph - N/A   Mostly Cloudy
11:10 PM 75.2 °F - 75.2 °F 100% 29.83 in 3.7 mi NE 6.9 mph - N/A   Mostly Cloudy
11:30 PM 74 °F - 71 °F 89% 29.83 in 2 mi NE 6.9 mph - -   Haze
11:40 PM 73.4 °F - 71.6 °F 94% 29.83 in 3.7 mi NE 6.9 mph - N/A   Mostly Cloudy